| time (UTC) | temp F | wind direction | speed knots | gust knots | rain 1hr in | rain 24hr in | rain mn in | humidity % | barometer mb |
| 20260506191024 | 69 | 149 | 0.0 | 0.9 | 0.00 | 0.00 | 0.00 | 56 | 1019.7 |
| 20260506190521 | 68 | 168 | 0.9 | 1.7 | 0.00 | 0.00 | 0.00 | 59 | 1019.5 |
| 20260506190019 | 68 | 242 | 1.7 | 2.6 | 0.00 | 0.00 | 0.00 | 58 | 1019.6 |
| 20260506185515 | 67 | 166 | 0.0 | 0.0 | 0.00 | 0.00 | 0.00 | 59 | 1019.4 |
| 20260506185012 | 67 | 138 | 0.0 | 0.0 | 0.00 | 0.00 | 0.00 | 61 | 1019.6 |
| 20260506184509 | 67 | 161 | 1.7 | 2.6 | 0.00 | 0.00 | 0.00 | 59 | 1019.7 |
| 20260506184006 | 67 | 161 | 1.7 | 2.6 | 0.00 | 0.00 | 0.00 | 59 | 1019.6 |
| 20260506183502 | 66 | 210 | 0.0 | 0.0 | 0.00 | 0.00 | 0.00 | 62 | 1019.8 |
| 20260506182959 | 66 | 210 | 0.0 | 0.0 | 0.00 | 0.00 | 0.00 | 62 | 1019.6 |
| 20260506182456 | 65 | 141 | 0.0 | 0.0 | 0.00 | 0.00 | 0.00 | 61 | 1019.7 |
| 20260506181953 | 0 | 0.0 | 0.0 | 0.00 | 0.00 | 0.00 | 1019.8 | ||
| 20260506181451 | 0 | 0.0 | 0.0 | 0.00 | 0.00 | 0.00 | 1019.8 | ||
| 20260506180947 | 0 | 0.0 | 0.0 | 0.00 | 0.00 | 0.00 | 1020.0 | ||
| 20260506180444 | 64 | 222 | 0.0 | 0.0 | 0.00 | 0.00 | 0.00 | 66 | 1019.8 |
| 20260506175941 | 64 | 222 | 0.0 | 0.0 | 0.00 | 0.00 | 0.00 | 66 | 1020.0 |
| 20260506175437 | 0 | 0.0 | 0.0 | 0.00 | 0.00 | 0.00 | 1019.9 | ||
| 20260506174934 | 0 | 0.0 | 0.0 | 0.00 | 0.00 | 0.00 | 1020.0 | ||
| 20260506174432 | 63 | 222 | 0.0 | 0.0 | 0.00 | 0.00 | 0.00 | 67 | 1020.0 |
| 20260506173929 | 63 | 222 | 0.0 | 0.0 | 0.00 | 0.00 | 0.00 | 67 | 1019.8 |
| 20260506173426 | 63 | 223 | 0.0 | 0.0 | 0.00 | 0.00 | 0.00 | 67 | 1019.9 |
| 20260506172923 | 62 | 221 | 0.0 | 0.0 | 0.00 | 0.00 | 0.00 | 70 | 1020.0 |
| 20260506172420 | 62 | 220 | 0.0 | 0.0 | 0.00 | 0.00 | 0.00 | 69 | 1020.0 |
| 20260506171917 | 62 | 220 | 0.0 | 0.0 | 0.00 | 0.00 | 0.00 | 69 | 1019.8 |
| 20260506171414 | 62 | 223 | 0.0 | 0.0 | 0.00 | 0.00 | 0.00 | 69 | 1020.1 |
| 20260506170912 | 0 | 0.0 | 0.0 | 0.00 | 0.00 | 0.00 | 1020.0 | ||
| 20260506170407 | 64 | 239 | 0.9 | 0.9 | 0.00 | 0.00 | 0.00 | 67 | 1020.2 |
| 20260506165907 | 64 | 239 | 0.9 | 0.9 | 0.00 | 0.00 | 0.00 | 67 | 1020.0 |
| 20260506165404 | 63 | 242 | 2.6 | 3.5 | 0.00 | 0.00 | 0.00 | 68 | 1020.1 |
| 20260506164901 | 63 | 242 | 2.6 | 3.5 | 0.00 | 0.00 | 0.00 | 68 | 1019.8 |
| 20260506164357 | 62 | 231 | 0.0 | 0.0 | 0.00 | 0.00 | 0.00 | 70 | 1019.8 |
| 20260506163856 | 0 | 0.0 | 0.0 | 0.00 | 0.00 | 0.00 | 1020.2 | ||
| 20260506163355 | 0 | 0.0 | 0.0 | 0.00 | 0.00 | 0.00 | 1020.1 | ||
| 20260506162850 | 0 | 0.0 | 0.0 | 0.00 | 0.00 | 0.00 | 1019.9 | ||
| 20260506162349 | 0 | 0.0 | 0.0 | 0.00 | 0.00 | 0.00 | 1020.0 | ||
| 20260506161846 | 0 | 0.0 | 0.0 | 0.00 | 0.00 | 0.00 | 1020.4 | ||
| 20260506161343 | 0 | 0.0 | 0.0 | 0.00 | 0.00 | 0.00 | 1020.2 | ||
| 20260506160841 | 0 | 0.0 | 0.0 | 0.00 | 0.00 | 0.00 | 1020.0 | ||
| 20260506160338 | 0 | 0.0 | 0.0 | 0.00 | 0.00 | 0.00 | 1020.2 | ||
| 20260506155836 | 58 | 229 | 0.0 | 0.0 | 0.00 | 0.00 | 0.00 | 76 | 1020.0 |
| 20260506155332 | 58 | 229 | 0.0 | 0.0 | 0.00 | 0.00 | 0.00 | 76 | 1020.1 |
| 20260506153444 | 58 | 232 | 1.7 | 2.6 | 0.00 | 0.00 | 0.00 | 75 | 1019.9 |
| 20260506152942 | 58 | 225 | 0.0 | 0.0 | 0.00 | 0.00 | 0.00 | 76 | 1020.2 |
| 20260506152439 | 57 | 226 | 0.0 | 0.0 | 0.00 | 0.00 | 0.00 | 77 | 1020.0 |
| 20260506151937 | 57 | 226 | 0.0 | 0.0 | 0.00 | 0.00 | 0.00 | 77 | 1020.4 |
| 20260506151434 | 57 | 226 | 0.0 | 0.0 | 0.00 | 0.00 | 0.00 | 77 | 1020.3 |
| 20260506150932 | 57 | 225 | 0.0 | 0.0 | 0.00 | 0.00 | 0.00 | 78 | 1020.3 |
| 20260506150427 | 57 | 226 | 0.9 | 0.9 | 0.00 | 0.00 | 0.00 | 78 | 1020.1 |
| 20260506145925 | 0 | 0.0 | 0.0 | 0.00 | 0.00 | 0.00 | 1020.0 | ||
| 20260506145421 | 57 | 212 | 0.0 | 0.0 | 0.00 | 0.00 | 0.00 | 78 | 1020.1 |
| 20260506144919 | 57 | 212 | 0.0 | 0.0 | 0.00 | 0.00 | 0.00 | 78 | 1020.4 |
| 20260506144415 | 57 | 209 | 0.0 | 0.0 | 0.00 | 0.00 | 0.00 | 78 | 1020.1 |
| 20260506143913 | 57 | 172 | 0.0 | 0.0 | 0.00 | 0.00 | 0.00 | 81 | 1020.0 |
| 20260506143410 | 56 | 172 | 0.0 | 0.0 | 0.00 | 0.00 | 0.00 | 82 | 1020.0 |
| 20260506142908 | 0 | 0.0 | 0.0 | 0.00 | 0.00 | 0.00 | 1020.0 | ||
| 20260506142406 | 0 | 0.0 | 0.0 | 0.00 | 0.00 | 0.00 | 1019.9 | ||
| 20260506141904 | 0 | 0.0 | 0.0 | 0.00 | 0.00 | 0.00 | 1019.9 | ||
| 20260506141402 | 0 | 0.0 | 0.0 | 0.00 | 0.00 | 0.00 | 1019.7 | ||
| 20260506140900 | 54 | 131 | 0.0 | 0.0 | 0.00 | 0.00 | 0.00 | 87 | 1019.7 |
| 20260506140356 | 54 | 131 | 0.0 | 0.0 | 0.00 | 0.00 | 0.00 | 87 | 1019.6 |
| 20260506135853 | 0 | 0.0 | 0.0 | 0.00 | 0.00 | 0.00 | 1019.5 | ||
| 20260506135350 | 0 | 0.0 | 0.0 | 0.00 | 0.00 | 0.00 | 1019.7 | ||
| 20260506134846 | 0 | 0.0 | 0.0 | 0.00 | 0.00 | 0.00 | 1019.7 | ||
| 20260506134342 | 51 | 131 | 0.0 | 0.0 | 0.00 | 0.00 | 0.00 | 92 | 1019.3 |
| 20260506133840 | 51 | 131 | 0.0 | 0.0 | 0.00 | 0.00 | 0.00 | 92 | 1019.5 |
| 20260506133336 | 0 | 0.0 | 0.0 | 0.00 | 0.00 | 0.00 | 1019.8 | ||
| 20260506132833 | 0 | 0.0 | 0.0 | 0.00 | 0.00 | 0.00 | 1019.4 | ||
| 20260506132331 | 0 | 0.0 | 0.0 | 0.00 | 0.00 | 0.00 | 1019.5 | ||
| 20260506131828 | 51 | 131 | 0.0 | 0.0 | 0.00 | 0.00 | 0.00 | 92 | 1019.4 |
| 20260506131324 | 51 | 131 | 0.0 | 0.0 | 0.00 | 0.00 | 0.00 | 92 | 1019.3 |
| 20260506130822 | 51 | 131 | 0.0 | 0.0 | 0.00 | 0.00 | 0.00 | 92 | 1019.3 |
| 20260506130318 | 0 | 0.0 | 0.0 | 0.00 | 0.00 | 0.00 | 1019.4 | ||
| 20260506125816 | 0 | 0.0 | 0.0 | 0.00 | 0.00 | 0.00 | 1019.2 | ||
| 20260506125314 | 52 | 131 | 0.0 | 0.0 | 0.00 | 0.00 | 0.00 | 90 | 1019.1 |
| 20260506124813 | 52 | 131 | 0.0 | 0.0 | 0.00 | 0.00 | 0.00 | 90 | 1019.1 |
| 20260506124309 | 0 | 0.0 | 0.0 | 0.00 | 0.00 | 0.00 | 1019.0 | ||
| 20260506123807 | 0 | 0.0 | 0.0 | 0.00 | 0.00 | 0.00 | 1019.1 | ||
| 20260506123305 | 0 | 0.0 | 0.0 | 0.00 | 0.00 | 0.00 | 1019.2 | ||
| 20260506122801 | 0 | 0.0 | 0.0 | 0.00 | 0.00 | 0.00 | 1019.2 | ||
| 20260506122259 | 0 | 0.0 | 0.0 | 0.00 | 0.00 | 0.00 | 1019.0 | ||
| 20260506121757 | 0 | 0.0 | 0.0 | 0.00 | 0.00 | 0.00 | 1019.1 | ||
| 20260506121253 | 0 | 0.0 | 0.0 | 0.00 | 0.00 | 0.00 | 1019.1 | ||
| 20260506120751 | 52 | 131 | 0.0 | 0.0 | 0.00 | 0.00 | 0.00 | 90 | 1019.1 |
| 20260506120249 | 52 | 131 | 0.0 | 0.0 | 0.00 | 0.00 | 0.00 | 90 | 1019.0 |
| 20260506115746 | 0 | 0.0 | 0.0 | 0.00 | 0.00 | 0.00 | 1019.1 | ||
| 20260506115244 | 0 | 0.0 | 0.0 | 0.00 | 0.00 | 0.00 | 1019.2 | ||
| 20260506114741 | 0 | 0.0 | 0.0 | 0.00 | 0.00 | 0.00 | 1019.1 | ||
| 20260506114239 | 0 | 0.0 | 0.0 | 0.00 | 0.00 | 0.00 | 1018.9 | ||
| 20260506113737 | 0 | 0.0 | 0.0 | 0.00 | 0.00 | 0.00 | 1018.9 | ||
| 20260506113234 | 0 | 0.0 | 0.0 | 0.00 | 0.00 | 0.00 | 1018.9 | ||
| 20260506112730 | 0 | 0.0 | 0.0 | 0.00 | 0.00 | 0.00 | 1018.6 | ||
| 20260506112228 | 0 | 0.0 | 0.0 | 0.00 | 0.00 | 0.00 | 1018.8 | ||
| 20260506111725 | 0 | 0.0 | 0.0 | 0.00 | 0.00 | 0.00 | 1018.6 | ||
| 20260506111224 | 0 | 0.0 | 0.0 | 0.00 | 0.00 | 0.00 | 1018.6 | ||
| 20260506110721 | 0 | 0.0 | 0.0 | 0.00 | 0.00 | 0.00 | 1018.5 | ||
| 20260506110218 | 0 | 0.0 | 0.0 | 0.00 | 0.00 | 0.00 | 1018.5 | ||
| 20260506105714 | 0 | 0.0 | 0.0 | 0.00 | 0.00 | 0.00 | 1018.5 | ||
| 20260506105211 | 0 | 0.0 | 0.0 | 0.00 | 0.00 | 0.00 | 1018.4 | ||
| 20260506104710 | 0 | 0.0 | 0.0 | 0.00 | 0.00 | 0.00 | 1018.4 | ||
| 20260506104207 | 0 | 0.0 | 0.0 | 0.00 | 0.00 | 0.00 | 1018.5 | ||
| 20260506103703 | 0 | 0.0 | 0.0 | 0.00 | 0.00 | 0.00 | 1018.4 | ||
| 20260506103200 | 0 | 0.0 | 0.0 | 0.00 | 0.00 | 0.00 | 1018.7 | ||
| 20260506102659 | 0 | 0.0 | 0.0 | 0.00 | 0.00 | 0.00 | 1018.5 | ||
| 20260506102156 | 0 | 0.0 | 0.0 | 0.00 | 0.00 | 0.00 | 1018.5 | ||
| 20260506101652 | 0 | 0.0 | 0.0 | 0.00 | 0.00 | 0.00 | 1018.6 | ||
| 20260506101149 | 0 | 0.0 | 0.0 | 0.00 | 0.00 | 0.00 | 1018.5 | ||
| 20260506100648 | 0 | 0.0 | 0.0 | 0.00 | 0.00 | 0.00 | 1018.4 | ||
| 20260506100145 | 0 | 0.0 | 0.0 | 0.00 | 0.00 | 0.00 | 1018.5 | ||
| 20260506095644 | 0 | 0.0 | 0.0 | 0.00 | 0.00 | 0.00 | 1018.3 | ||
| 20260506095140 | 0 | 0.0 | 0.0 | 0.00 | 0.00 | 0.00 | 1018.6 | ||
| 20260506094638 | 0 | 0.0 | 0.0 | 0.00 | 0.00 | 0.00 | 1018.6 | ||
| 20260506094135 | 0 | 0.0 | 0.0 | 0.00 | 0.00 | 0.00 | 1018.4 | ||
| 20260506093634 | 0 | 0.0 | 0.0 | 0.00 | 0.00 | 0.00 | 1018.4 | ||
| 20260506093130 | 0 | 0.0 | 0.0 | 0.00 | 0.00 | 0.00 | 1018.4 | ||
| 20260506092628 | 0 | 0.0 | 0.0 | 0.00 | 0.00 | 0.00 | 1018.3 | ||
| 20260506092125 | 0 | 0.0 | 0.0 | 0.00 | 0.00 | 0.00 | 1018.3 | ||
| 20260506091623 | 0 | 0.0 | 0.0 | 0.00 | 0.00 | 0.00 | 1018.4 | ||
| 20260506091120 | 0 | 0.0 | 0.0 | 0.00 | 0.00 | 0.00 | 1018.3 | ||
| 20260506090619 | 0 | 0.0 | 0.0 | 0.00 | 0.00 | 0.00 | 1018.3 | ||
| 20260506090114 | 0 | 0.0 | 0.0 | 0.00 | 0.00 | 0.00 | 1018.2 | ||
| 20260506085611 | 0 | 0.0 | 0.0 | 0.00 | 0.00 | 0.00 | 1018.4 | ||
| 20260506085108 | 0 | 0.0 | 0.0 | 0.00 | 0.00 | 0.00 | 1018.5 | ||
| 20260506084604 | 0 | 0.0 | 0.0 | 0.00 | 0.00 | 0.00 | 1018.3 | ||
| 20260506084101 | 0 | 0.0 | 0.0 | 0.00 | 0.00 | 0.00 | 1018.2 | ||
| 20260506083558 | 0 | 0.0 | 0.0 | 0.00 | 0.00 | 0.00 | 1018.4 | ||
| 20260506083055 | 0 | 0.0 | 0.0 | 0.00 | 0.00 | 0.00 | 1018.4 | ||
| 20260506082552 | 0 | 0.0 | 0.0 | 0.00 | 0.00 | 0.00 | 1018.5 | ||
| 20260506082048 | 0 | 0.0 | 0.0 | 0.00 | 0.00 | 0.00 | 1018.6 | ||
| 20260506081546 | 0 | 0.0 | 0.0 | 0.00 | 0.00 | 0.00 | 1018.6 | ||
| 20260506081043 | 0 | 0.0 | 0.0 | 0.00 | 0.00 | 0.00 | 1018.6 | ||
| 20260506080541 | 0 | 0.0 | 0.0 | 0.00 | 0.00 | 0.00 | 1018.6 | ||
| 20260506073524 | 0 | 0.0 | 0.0 | 0.00 | 0.00 | 0.00 | 1018.3 | ||
| 20260506073021 | 0 | 0.0 | 0.0 | 0.00 | 0.00 | 0.00 | 1018.4 | ||
| 20260506072518 | 0 | 0.0 | 0.0 | 0.00 | 0.00 | 0.00 | 1018.3 | ||
| 20260506072016 | 0 | 0.0 | 0.0 | 0.00 | 0.00 | 0.00 | 1018.2 | ||
| 20260506071514 | 52 | 124 | 0.0 | 0.0 | 0.00 | 0.00 | 0.00 | 89 | 1018.2 |
| 20260506071011 | 52 | 124 | 0.0 | 0.0 | 0.00 | 0.00 | 0.00 | 89 | 1018.1 |
| 20260506070508 | 52 | 124 | 0.0 | 0.0 | 0.00 | 0.00 | 0.00 | 88 | 1018.1 |
| 20260506062445 | 52 | 124 | 0.0 | 0.0 | 0.00 | 0.06 | 0.06 | 88 | 1018.0 |
| 20260506061941 | 52 | 124 | 0.0 | 0.0 | 0.00 | 0.06 | 0.06 | 87 | 1017.8 |
| 20260506061438 | 53 | 124 | 0.0 | 0.0 | 0.00 | 0.06 | 0.06 | 87 | 1017.6 |
| 20260506060936 | 53 | 124 | 0.0 | 0.0 | 0.00 | 0.06 | 0.06 | 86 | 1017.6 |
| 20260506060434 | 53 | 124 | 0.0 | 0.0 | 0.00 | 0.06 | 0.06 | 85 | 1017.8 |
| 20260506051406 | 55 | 124 | 0.0 | 0.0 | 0.00 | 0.06 | 0.06 | 80 | 1017.6 |
| 20260506050903 | 55 | 124 | 0.0 | 0.0 | 0.00 | 0.06 | 0.06 | 80 | 1017.5 |
| 20260506050400 | 56 | 124 | 0.0 | 0.0 | 0.00 | 0.06 | 0.06 | 79 | 1017.1 |
| 20260506044851 | 56 | 124 | 0.0 | 0.0 | 0.00 | 0.06 | 0.06 | 79 | 1017.2 |
| 20260506044349 | 56 | 124 | 0.0 | 0.0 | 0.00 | 0.06 | 0.06 | 78 | 1017.2 |
| 20260506043845 | 56 | 127 | 0.0 | 0.0 | 0.00 | 0.06 | 0.06 | 79 | 1016.8 |
| 20260506043342 | 56 | 127 | 0.0 | 0.0 | 0.00 | 0.06 | 0.06 | 78 | 1016.7 |
| 20260506042841 | 56 | 127 | 0.0 | 0.0 | 0.00 | 0.06 | 0.06 | 78 | 1016.6 |
| 20260506042340 | 56 | 127 | 0.0 | 0.0 | 0.00 | 0.06 | 0.06 | 78 | 1016.5 |
| 20260506041838 | 56 | 127 | 0.0 | 0.0 | 0.00 | 0.06 | 0.06 | 78 | 1016.6 |
| 20260506041335 | 56 | 127 | 0.0 | 0.0 | 0.00 | 0.06 | 0.06 | 78 | 1016.5 |
| 20260506040832 | 57 | 127 | 0.0 | 0.0 | 0.00 | 0.06 | 0.06 | 77 | 1016.4 |
| 20260506040329 | 57 | 130 | 0.0 | 0.0 | 0.00 | 0.06 | 0.06 | 78 | 1016.4 |
| 20260506035825 | 57 | 130 | 0.0 | 0.0 | 0.00 | 0.06 | 0.06 | 79 | 1016.4 |
| 20260506035323 | 57 | 130 | 0.0 | 0.0 | 0.00 | 0.06 | 0.06 | 77 | 1016.4 |
| 20260506034820 | 57 | 130 | 0.0 | 0.0 | 0.00 | 0.06 | 0.06 | 76 | 1016.2 |
| 20260506034317 | 57 | 130 | 0.0 | 0.0 | 0.00 | 0.06 | 0.06 | 76 | 1016.2 |
| 20260506033814 | 57 | 130 | 0.0 | 0.0 | 0.00 | 0.06 | 0.06 | 76 | 1016.0 |
| 20260506033310 | 57 | 130 | 0.0 | 0.0 | 0.00 | 0.06 | 0.06 | 76 | 1016.3 |
| 20260506032807 | 57 | 130 | 0.0 | 0.0 | 0.00 | 0.06 | 0.06 | 77 | 1016.1 |
| 20260506032306 | 58 | 130 | 0.0 | 0.0 | 0.00 | 0.06 | 0.06 | 77 | 1015.9 |
| 20260506031801 | 58 | 130 | 0.0 | 0.0 | 0.00 | 0.06 | 0.06 | 76 | 1015.8 |
| 20260506031258 | 58 | 130 | 0.0 | 0.0 | 0.00 | 0.06 | 0.06 | 75 | 1015.6 |
| 20260506030756 | 58 | 130 | 0.0 | 0.0 | 0.00 | 0.06 | 0.06 | 75 | 1015.6 |
| 20260506030254 | 58 | 130 | 0.0 | 0.0 | 0.00 | 0.06 | 0.06 | 76 | 1015.4 |
| 20260506025751 | 58 | 130 | 0.0 | 0.0 | 0.00 | 0.06 | 0.06 | 76 | 1015.9 |
| 20260506025247 | 58 | 130 | 0.0 | 0.0 | 0.00 | 0.06 | 0.06 | 75 | 1015.5 |
| 20260506024744 | 58 | 130 | 0.0 | 0.0 | 0.00 | 0.06 | 0.06 | 74 | 1015.6 |
| 20260506024241 | 58 | 130 | 0.0 | 0.0 | 0.00 | 0.06 | 0.06 | 74 | 1015.7 |
| 20260506023737 | 58 | 130 | 0.0 | 0.0 | 0.00 | 0.06 | 0.06 | 74 | 1015.4 |
| 20260506023234 | 58 | 131 | 0.0 | 0.0 | 0.00 | 0.06 | 0.06 | 74 | 1015.3 |
| 20260506022731 | 58 | 133 | 0.0 | 0.0 | 0.00 | 0.06 | 0.06 | 75 | 1015.6 |
| 20260506022229 | 58 | 133 | 0.0 | 0.0 | 0.00 | 0.06 | 0.06 | 74 | 1015.4 |
| 20260506021726 | 59 | 137 | 0.0 | 0.0 | 0.00 | 0.06 | 0.06 | 74 | 1015.4 |
| 20260506021223 | 59 | 142 | 0.0 | 0.0 | 0.00 | 0.06 | 0.06 | 72 | 1015.2 |
| 20260506020720 | 59 | 142 | 0.0 | 0.0 | 0.00 | 0.06 | 0.06 | 72 | 1015.3 |
| 20260506020218 | 60 | 146 | 0.0 | 0.0 | 0.00 | 0.06 | 0.06 | 71 | 1015.5 |
| 20260506015715 | 60 | 146 | 0.0 | 0.0 | 0.00 | 0.06 | 0.06 | 71 | 1015.2 |
| 20260506015213 | 61 | 147 | 0.0 | 0.0 | 0.00 | 0.06 | 0.06 | 70 | 1015.0 |
| 20260506014710 | 61 | 146 | 0.0 | 0.0 | 0.00 | 0.06 | 0.06 | 69 | 1014.9 |
| 20260506014205 | 62 | 147 | 0.0 | 0.0 | 0.00 | 0.06 | 0.06 | 68 | 1015.0 |
| 20260506013703 | 62 | 114 | 0.0 | 0.0 | 0.00 | 0.06 | 0.06 | 68 | 1015.0 |
| 20260506013200 | 62 | 151 | 0.0 | 0.0 | 0.00 | 0.06 | 0.06 | 67 | 1014.8 |
| 20260506012656 | 62 | 150 | 0.0 | 0.0 | 0.00 | 0.06 | 0.06 | 68 | 1015.1 |
| 20260506012153 | 62 | 229 | 0.0 | 0.0 | 0.00 | 0.06 | 0.06 | 68 | 1015.0 |
| 20260506011651 | 62 | 114 | 0.0 | 0.0 | 0.00 | 0.06 | 0.06 | 67 | 1015.1 |
| 20260506011147 | 62 | 114 | 0.0 | 0.0 | 0.00 | 0.06 | 0.06 | 68 | 1015.1 |
| 20260506010646 | 62 | 112 | 0.0 | 0.0 | 0.00 | 0.06 | 0.06 | 68 | 1015.0 |
| 20260506010142 | 62 | 112 | 0.0 | 0.0 | 0.00 | 0.06 | 0.06 | 68 | 1015.1 |
| 20260506005639 | 62 | 112 | 0.0 | 0.0 | 0.00 | 0.06 | 0.06 | 68 | 1014.9 |
| 20260506005136 | 62 | 114 | 0.0 | 0.0 | 0.00 | 0.06 | 0.06 | 69 | 1014.7 |
| 20260506004632 | 61 | 106 | 0.0 | 0.0 | 0.00 | 0.06 | 0.06 | 70 | 1014.8 |
| 20260506004130 | 61 | 106 | 0.0 | 0.0 | 0.00 | 0.06 | 0.06 | 71 | 1014.9 |
| 20260506003626 | 61 | 107 | 0.0 | 0.0 | 0.00 | 0.06 | 0.06 | 71 | 1014.8 |
| 20260506003122 | 61 | 105 | 0.0 | 0.0 | 0.00 | 0.06 | 0.06 | 72 | 1014.8 |
| 20260506002618 | 61 | 105 | 0.0 | 0.0 | 0.00 | 0.06 | 0.06 | 71 | 1014.7 |
| 20260506002114 | 61 | 105 | 0.0 | 0.0 | 0.00 | 0.06 | 0.06 | 72 | 1014.7 |
| 20260506001610 | 61 | 105 | 0.0 | 0.0 | 0.00 | 0.06 | 0.06 | 73 | 1014.9 |
| 20260506001108 | 61 | 105 | 0.0 | 0.0 | 0.00 | 0.06 | 0.06 | 71 | 1014.6 |
| 20260506000605 | 61 | 106 | 0.0 | 0.0 | 0.00 | 0.06 | 0.06 | 71 | 1014.5 |
| 20260505235600 | 61 | 106 | 0.0 | 0.0 | 0.00 | 0.06 | 0.06 | 70 | 1014.6 |
| 20260505235057 | 61 | 105 | 0.0 | 0.0 | 0.00 | 0.06 | 0.06 | 72 | 1014.7 |
| 20260505234554 | 61 | 105 | 0.0 | 0.0 | 0.00 | 0.06 | 0.06 | 71 | 1014.7 |
| 20260505234050 | 61 | 105 | 0.0 | 0.0 | 0.00 | 0.06 | 0.06 | 73 | 1014.7 |
| 20260505233548 | 61 | 105 | 0.0 | 0.0 | 0.00 | 0.06 | 0.06 | 73 | 1014.6 |
| 20260505233045 | 61 | 105 | 0.0 | 0.0 | 0.00 | 0.06 | 0.06 | 73 | 1014.8 |
| 20260505232543 | 61 | 151 | 0.0 | 0.0 | 0.00 | 0.06 | 0.06 | 70 | 1015.0 |
| 20260505232041 | 61 | 151 | 0.0 | 0.0 | 0.00 | 0.06 | 0.06 | 70 | 1014.9 |
| 20260505231537 | 61 | 148 | 0.0 | 0.0 | 0.00 | 0.06 | 0.06 | 71 | 1014.7 |
| 20260505231036 | 62 | 152 | 0.0 | 0.0 | 0.00 | 0.06 | 0.06 | 70 | 1014.9 |
| 20260505230533 | 62 | 126 | 0.0 | 0.0 | 0.00 | 0.06 | 0.06 | 70 | 1014.9 |
| 20260505230029 | 62 | 128 | 0.0 | 0.0 | 0.00 | 0.06 | 0.06 | 69 | 1014.7 |
| 20260505225526 | 61 | 112 | 0.0 | 0.0 | 0.00 | 0.06 | 0.06 | 71 | 1015.0 |
| 20260505225022 | 61 | 112 | 0.0 | 0.0 | 0.00 | 0.06 | 0.06 | 73 | 1014.9 |
| 20260505224519 | 61 | 112 | 0.0 | 0.0 | 0.00 | 0.06 | 0.06 | 73 | 1015.1 |
| 20260505224016 | 60 | 112 | 0.0 | 0.0 | 0.00 | 0.06 | 0.06 | 71 | 1015.0 |
| 20260505223514 | 60 | 112 | 0.0 | 0.0 | 0.00 | 0.06 | 0.06 | 73 | 1015.2 |
| 20260505223010 | 60 | 112 | 0.0 | 0.0 | 0.00 | 0.06 | 0.06 | 72 | 1015.0 |
| 20260505222506 | 60 | 112 | 0.0 | 0.0 | 0.00 | 0.06 | 0.06 | 74 | 1015.0 |
| 20260505222002 | 60 | 112 | 0.0 | 0.0 | 0.00 | 0.06 | 0.06 | 73 | 1014.8 |
| 20260505221459 | 60 | 111 | 0.0 | 0.0 | 0.00 | 0.06 | 0.06 | 74 | 1015.0 |
| 20260505220956 | 60 | 112 | 0.0 | 0.0 | 0.00 | 0.06 | 0.06 | 74 | 1015.3 |
| 20260505220453 | 60 | 110 | 0.0 | 0.0 | 0.00 | 0.06 | 0.06 | 73 | 1015.2 |
| 20260505215951 | 60 | 112 | 0.0 | 0.0 | 0.00 | 0.06 | 0.06 | 73 | 1015.3 |
| 20260505215449 | 60 | 108 | 0.0 | 0.0 | 0.00 | 0.06 | 0.06 | 75 | 1015.1 |
| 20260505214946 | 60 | 112 | 0.0 | 0.0 | 0.00 | 0.06 | 0.06 | 74 | 1015.1 |
| 20260505214444 | 60 | 112 | 0.0 | 0.0 | 0.00 | 0.06 | 0.06 | 76 | 1015.2 |
| 20260505213941 | 60 | 112 | 0.0 | 0.0 | 0.00 | 0.06 | 0.06 | 75 | 1015.1 |
| 20260505213439 | 60 | 111 | 0.0 | 0.0 | 0.00 | 0.06 | 0.06 | 77 | 1015.0 |
| 20260505212935 | 59 | 111 | 0.0 | 0.0 | 0.00 | 0.06 | 0.06 | 77 | 1015.1 |
| 20260505212432 | 59 | 111 | 0.0 | 0.0 | 0.00 | 0.06 | 0.06 | 76 | 1015.4 |
| 20260505211928 | 59 | 122 | 0.0 | 0.0 | 0.00 | 0.06 | 0.06 | 77 | 1015.3 |
| 20260505211426 | 59 | 153 | 0.0 | 0.0 | 0.00 | 0.06 | 0.06 | 76 | 1015.4 |
| 20260505210922 | 59 | 155 | 0.0 | 0.0 | 0.00 | 0.06 | 0.06 | 77 | 1015.3 |
| 20260505210420 | 59 | 155 | 0.0 | 0.0 | 0.00 | 0.06 | 0.06 | 76 | 1015.1 |
| 20260505205916 | 59 | 154 | 0.9 | 0.9 | 0.00 | 0.06 | 0.06 | 75 | 1015.3 |
| 20260505205415 | 58 | 114 | 0.0 | 0.0 | 0.00 | 0.06 | 0.06 | 79 | 1015.2 |
| 20260505204911 | 58 | 109 | 0.0 | 0.0 | 0.00 | 0.06 | 0.06 | 75 | 1015.4 |
| 20260505204409 | 58 | 106 | 0.0 | 0.0 | 0.00 | 0.06 | 0.06 | 78 | 1015.3 |
| 20260505203906 | 58 | 106 | 0.0 | 0.0 | 0.00 | 0.06 | 0.06 | 78 | 1015.4 |
| 20260505203402 | 58 | 106 | 0.0 | 0.0 | 0.00 | 0.06 | 0.06 | 79 | 1015.4 |
| 20260505202859 | 58 | 108 | 0.0 | 0.0 | 0.00 | 0.06 | 0.06 | 79 | 1015.4 |
| 20260505202355 | 58 | 108 | 0.0 | 0.0 | 0.00 | 0.06 | 0.06 | 79 | 1015.4 |
| 20260505201851 | 58 | 108 | 0.0 | 0.0 | 0.00 | 0.06 | 0.06 | 78 | 1015.4 |
| 20260505201349 | 58 | 109 | 0.0 | 0.0 | 0.00 | 0.06 | 0.06 | 77 | 1015.7 |
| 20260505200847 | 58 | 94 | 0.0 | 0.0 | 0.00 | 0.06 | 0.06 | 78 | 1015.5 |
| 20260505200344 | 59 | 108 | 0.0 | 3.5 | 0.00 | 0.06 | 0.06 | 77 | 1015.4 |
| 20260505195839 | 59 | 108 | 0.0 | 0.0 | 0.00 | 0.06 | 0.06 | 77 | 1015.4 |
| 20260505195337 | 59 | 107 | 0.0 | 0.0 | 0.00 | 0.06 | 0.06 | 77 | 1015.5 |
| 20260505194834 | 59 | 70 | 0.0 | 0.0 | 0.00 | 0.06 | 0.06 | 74 | 1015.4 |
| 20260505194331 | 59 | 104 | 0.0 | 0.0 | 0.00 | 0.06 | 0.06 | 75 | 1015.3 |
| 20260505193826 | 59 | 104 | 0.0 | 0.0 | 0.00 | 0.06 | 0.06 | 77 | 1015.7 |
| 20260505193324 | 58 | 101 | 0.0 | 0.0 | 0.00 | 0.06 | 0.06 | 76 | 1015.5 |
| 20260505192822 | 59 | 123 | 0.0 | 0.9 | 0.00 | 0.06 | 0.06 | 76 | 1015.1 |
| 20260505192320 | 59 | 101 | 0.0 | 0.9 | 0.00 | 0.06 | 0.06 | 77 | 1015.4 |
| 20260505191817 | 59 | 124 | 0.0 | 0.9 | 0.00 | 0.06 | 0.06 | 75 | 1015.5 |
| 20260505191316 | 60 | 143 | 0.0 | 0.0 | 0.00 | 0.06 | 0.06 | 75 | 1015.4 |